1335484833059,107.764
1335484893059,108.049
1335484953059,107.728
1335485013059,108.315
1335485073059,107.624
1335485133059,107.516
1335485193059,107.836
1335485253059,107.809
1335485313059,107.855
1335485373059,108.017
1335485433059,107.949
1335485493059,107.761
1335485553059,107.410
1335485613059,107.615
1335485673059,107.861
1335485733059,107.802
1335485793059,107.906
1335485853059,107.218
1335485913059,107.717
1335485973059,107.424
1335486033059,107.481
1335486093059,107.328
1335486153059,107.857
1335486213059,107.798
1335486273059,107.714
1335486333059,107.550
1335486393059,107.530
1335486453059,107.434
1335486513059,107.962
1335486573059,106.698
1335486633059,107.718
1335486693059,107.615
1335486753059,107.487
1335486813059,106.923
1335486873059,107.449
1335486933059,107.433
1335486993059,107.643
1335487053059,107.417
1335487113059,107.642
1335487173059,107.287
1335487233059,107.319
1335487293059,106.830
1335487353059,107.530
1335487413059,107.342
1335487473059,108.003
1335487533059,107.107
1335487593059,107.516
1335487653059,107.746
1335487713059,106.958
1335487773059,107.832
1335487833059,107.732
1335487893059,107.886
1335487953059,107.999
1335488013059,107.619
1335488073059,107.895
1335488133059,108.198
1335488193059,107.713
1335488253059,107.810
1335488313059,108.311
1335488373059,107.617
1335488433070,108.484
1335488493070,108.132
1335488553070,108.072
1335488613070,108.147
1335488673070,108.282
1335488733070,108.257
1335488793070,108.438
1335488853070,108.552
1335488913070,108.767
1335488973070,108.442
1335489033070,108.511
1335489093070,108.483
1335489153070,108.322
1335489213070,107.977
1335489273070,108.524
1335489333070,109.559
1335489393070,108.455
1335489453070,108.814
1335489513070,108.117
1335489573070,107.970
1335489633070,108.859
1335489693070,108.230
1335489753070,108.433
1335489813070,108.387
1335489873070,108.010
1335489933070,108.070
1335489993070,107.781
1335490053070,107.945
1335490113070,107.874
1335490173070,108.180
1335490233070,108.430
1335490293070,108.346
1335490353070,108.439
1335490413070,108.734
1335490473070,108.750
1335490533070,108.444
1335490593070,108.535
1335490653070,108.662
1335490713070,108.742
1335490773070,108.277
1335490833070,108.572
1335490893070,108.873
1335490953070,108.328
1335491013070,107.760
1335491073070,108.621
1335491133070,107.973
1335491193070,108.447
1335491253070,107.686
1335491313070,108.280
1335491373070,108.082
1335491433070,107.975
1335491493070,108.436
1335491553070,108.344
1335491613070,108.917
1335491673070,108.380
1335491733070,108.394
1335491793070,108.403
1335491853070,108.519
1335491913070,108.448
1335491973070,108.643
1335492033081,108.200
1335492093081,108.830
1335492153081,108.646
1335492213081,107.917
1335492273081,108.239
1335492333081,108.132
1335492393081,108.681
1335492453081,108.295
1335492513081,108.485
1335492573081,108.751
1335492633081,108.432
1335492693081,108.327
1335492753081,108.110
1335492813081,108.165
1335492873081,107.987
1335492933081,108.108
1335492993081,108.532
1335493053081,108.565
1335493113081,108.278
1335493173081,108.169
1335493233081,107.984
1335493293081,108.299
1335493353081,108.397
1335493413081,107.818
1335493473081,108.173
1335493533081,108.450
1335493593081,108.258
1335493653081,108.307
1335493713081,108.145
1335493773081,107.864
1335493833081,107.808
1335493893081,108.181
1335493953081,108.402
1335494013081,107.671
1335494073081,108.392
1335494133081,108.143
1335494193081,107.621
1335494253081,108.460
1335494313081,108.508
1335494373081,108.430
1335494433081,108.244
1335494493081,108.023
1335494553081,108.217
1335494613081,108.505
1335494673081,108.287
1335494733081,108.145
1335494793081,108.107
1335494853081,107.734
1335494913081,107.882
1335494973081,108.247
1335495033081,108.305
1335495093081,108.142
1335495153081,108.241
1335495213081,107.789
1335495273081,107.761
1335495333081,107.873
1335495393081,108.074
1335495453081,107.794
1335495513081,107.836
1335495573081,107.902
1335495633091,107.942
1335495693091,107.649
1335495753091,107.789
1335495813091,108.250
1335495873091,108.542
1335495933091,107.922
1335495993091,107.942
1335496053091,107.721
1335496113091,107.805
1335496173091,107.688
1335496233091,108.122
1335496293091,107.668
1335496353091,107.816
1335496413091,107.999
1335496473091,106.982
1335496533091,107.687
1335496593091,107.059
1335496653091,108.024
1335496713091,107.377
1335496773091,106.958
1335496833091,107.577
1335496893092,107.588
1335496953091,107.790
1335497013091,107.419
1335497073091,107.699
1335497133091,107.424
1335497193091,107.379
1335497253091,107.508
1335497313091,107.979
1335497373091,107.399
1335497433091,107.568
1335497493091,107.278
1335497553091,107.477
1335497613091,107.734
1335497673091,107.275
1335497733091,107.315
1335497793091,108.153
1335497853091,107.658
1335497913091,107.675
1335497973091,107.354
1335498033091,106.870
1335498093091,107.293
1335498153091,107.678
1335498213091,107.604
1335498273091,107.517
1335498333091,107.528
1335498393091,107.589
1335498453091,107.803
1335498513091,108.025
1335498573091,107.784
1335498633091,107.574
1335498693091,107.741
1335498753091,107.583
1335498813091,107.953
1335498873091,108.022
1335498933091,107.776
1335498993091,107.104
1335499053091,108.175
1335499113091,107.928
1335499173091,107.909
1335499233102,107.685
1335499293102,107.818
1335499353102,107.677
1335499413102,107.918
1335499473102,107.690
1335499533102,107.913
1335499593102,107.565
1335499653102,107.955
1335499713102,107.970
1335499773102,107.796
1335499833102,108.033
1335499893102,107.439
1335499953102,108.203
1335500013102,107.830
1335500073102,107.737
1335500133102,107.154
1335500193102,107.307
1335500253102,108.023
1335500313102,108.071
1335500373102,107.782
1335500433102,107.958
1335500493102,107.885
1335500553102,107.882
1335500613102,107.951
1335500673102,107.751
1335500733102,107.734
1335500793102,107.639
1335500853102,107.770
1335500913102,108.014
1335500973102,107.799
1335501033102,107.159
1335501093102,108.466
1335501153102,108.128
1335501213102,107.794
1335501273102,107.718
1335501333102,107.712
1335501393102,107.642
1335501453102,107.885
1335501513102,107.641
1335501573102,107.802
1335501633102,108.042
1335501693102,107.687
1335501753102,108.328
1335501813102,108.283
1335501873102,108.102
1335501933102,108.075
1335501993102,107.707
1335502053102,108.441
1335502113102,108.088
1335502173102,108.773
1335502233102,108.160
1335502293102,108.757
1335502353102,108.743
1335502413102,108.262
1335502473102,108.365
1335502533102,108.215
1335502593102,109.126
1335502653102,108.412
1335502713102,108.362
1335502773102,108.072
1335502833113,108.346
1335502893113,108.349
1335502953113,108.490
1335503013113,108.334
1335503073113,108.209
1335503133113,108.398
1335503193113,108.175
1335503253113,108.579
1335503313113,108.550
1335503373113,108.417
1335503433113,108.098
1335503493113,108.269
1335503553113,108.778
1335503613113,108.619
1335503673113,108.230
1335503733113,108.766
1335503793113,108.581
1335503853113,108.486
1335503913113,108.296
1335503973113,108.362
1335504033113,108.504
1335504093113,108.724
1335504153113,108.775
1335504213113,108.449
1335504273113,108.616
1335504333113,109.084
1335504393113,109.036
1335504453113,108.686
1335504513113,108.809
1335504573113,109.118
1335504633113,109.027
1335504693113,109.638
1335504753113,109.137
1335504813113,108.730
1335504873113,109.077
1335504933113,108.837
1335504993113,109.231
1335505053113,108.740
1335505113113,109.000
1335505173113,108.863
1335505233113,109.029
1335505293113,108.879
1335505353113,109.189
1335505413113,108.948
1335505473113,109.272
1335505533113,109.506
1335505593113,108.903
1335505653113,109.620
1335505713113,108.870
1335505773113,109.036
1335505833113,109.321
1335505893113,109.375
1335505953113,108.613
1335506013113,108.981
1335506073113,108.612
1335506133113,109.364
1335506193113,108.686
1335506253113,109.270
1335506313113,108.669
1335506373113,109.085
1335506433123,109.162
1335506493123,109.134
1335506553123,109.093
1335506613123,109.143
1335506673123,108.802
1335506733123,108.952
1335506793123,108.771
1335506853123,108.848
1335506913123,108.673
1335506973123,109.207
1335507033123,109.307
1335507093123,109.676
1335507153123,109.590
1335507213123,108.938
1335507273123,108.607
1335507333123,108.930
1335507393123,108.445
1335507453123,109.076
1335507513123,108.290
1335507573123,108.906
1335507633123,108.856
1335507693123,109.219
1335507753123,109.087
1335507813123,109.234
1335507873123,109.401
1335507933123,108.794
1335507993123,109.388
1335508053123,109.095
1335508113123,108.810
1335508173123,108.720
1335508233123,109.373
1335508293123,108.585
1335508353123,108.504
1335508413123,109.019
1335508473123,109.122
1335508533123,108.488
1335508593123,109.232
1335508653123,108.627
1335508713123,109.422
1335508773123,108.734
1335508833123,108.838
1335508893123,108.796
1335508953123,108.615
1335509013123,108.588
1335509073123,108.599
1335509133123,109.026
1335509193123,108.754
1335509253123,108.242
1335509313123,108.587
1335509373123,108.456
1335509433123,108.761
1335509493123,107.975
1335509553123,108.479
1335509613123,108.319
1335509673123,108.949
1335509733123,108.045
1335509793123,108.426
1335509853123,107.493
1335509913123,108.142
1335509973123,108.204
1335510033133,107.960
1335510093133,109.152
1335510153133,108.093
1335510213133,107.813
1335510273133,107.862
1335510333133,108.099
1335510393133,107.583
1335510453133,108.139
1335510513133,108.099
1335510573133,107.971
1335510633133,108.442
1335510693133,107.681
1335510753133,107.984
1335510813133,107.494
1335510873133,107.889
1335510933133,107.811
1335510993133,107.823
1335511053133,108.074
1335511113133,107.786
1335511173133,107.161
1335511233133,107.551
1335511293133,106.989
1335511353133,107.378
1335511413133,107.172
1335511473133,107.434
1335511533133,107.304
1335511593133,107.616
1335511653133,106.900
1335511713133,107.607
1335511773133,107.597
1335511833133,107.206
1335511893133,107.570
1335511953133,107.783
1335512013133,107.104
1335512073133,106.900
1335512133133,107.244
1335512193133,107.399
1335512253133,107.526
1335512313133,107.630
1335512373133,107.456
1335512433133,107.608
1335512493133,107.512
1335512553133,107.006
1335512613133,106.837
1335512673133,107.001
1335512733133,107.277
1335512793133,106.866
1335512853133,106.632
1335512913133,106.744
1335512973133,107.477
1335513033133,106.551
1335513093133,106.640
1335513153133,107.054
1335513213133,106.364
1335513273133,106.808
1335513333133,106.850
1335513393133,106.694
1335513453133,106.484
1335513513133,106.628
1335513573133,105.857
1335513633144,106.634
1335513693144,106.304
1335513753144,106.281
1335513813144,107.092
1335513873144,106.703
1335513933144,106.575
1335513993144,106.528
1335514053144,106.325
1335514113144,106.388
1335514173144,106.272
1335514233144,106.316
1335514293144,106.968
1335514353144,107.149
1335514413144,106.664
1335514473144,106.881
1335514533144,106.808
1335514593144,106.767
1335514653144,107.006
1335514713144,106.863
1335514773144,107.247
1335514833144,108.415
1335514893144,107.196
1335514953144,107.332
1335515013144,107.143
1335515073144,106.829
1335515133144,106.535
1335515193144,106.362
1335515253144,106.514
1335515313144,106.385
1335515373144,106.669
1335515433144,106.699
1335515493144,107.159
1335515553144,107.535
1335515613144,106.981
1335515673144,107.096
1335515733144,106.733
1335515793144,107.103
1335515853144,107.488
1335515913144,106.993
1335515973144,107.037
1335516033144,106.830
1335516093144,106.901
1335516153144,106.719
1335516213144,106.986
1335516273144,106.992
1335516333144,106.628
1335516393144,106.853
1335516453144,106.535
1335516513144,106.794
1335516573144,106.633
1335516633144,106.198
1335516693144,105.516
1335516753144,106.376
1335516813144,106.386
1335516873144,106.815
1335516933144,106.197
1335516993144,106.387
1335517053144,106.686
1335517113144,106.143
1335517173144,106.243
1335517233154,106.396
1335517293154,106.670
1335517353154,106.594
1335517413154,106.860
1335517473154,105.949
1335517533154,106.343
1335517593154,106.663
1335517653154,106.712
1335517713154,106.447
1335517773154,106.769
1335517833154,106.996
1335517893154,105.896
1335517953154,106.314
1335518013154,106.196
1335518073154,106.218
1335518133154,105.920
1335518193154,106.455
1335518253154,106.352
1335518313154,106.795
1335518373154,106.200
1335518433154,106.390
1335518493154,106.766
1335518553154,106.251
1335518613154,106.239
1335518673154,106.220
1335518733154,106.314
1335518793154,106.407
1335518853154,105.472
1335518913154,106.164
1335518973154,106.178
1335519033154,106.347
1335519093154,105.711
1335519153154,106.743
1335519213154,106.433
1335519273154,106.492
1335519333154,106.401
1335519393154,105.793
1335519453154,106.129
1335519513154,106.610
1335519573154,106.586
1335519633154,106.673
1335519693154,106.241
1335519753154,105.983
1335519813154,106.612
1335519873154,106.229
1335519933154,107.161
1335519993154,106.678
1335520053154,106.501
1335520113154,106.451
1335520173154,106.876
1335520233154,106.806
1335520293154,106.768
1335520353154,106.683
1335520413154,106.622
1335520473154,106.478
1335520533154,106.946
1335520593154,106.555
1335520653154,106.898
1335520713154,106.990
1335520773154,107.357
1335520833165,107.141
1335520893165,107.118
1335520953165,107.564
1335521013165,107.477
1335521073165,107.048
1335521133165,107.811
1335521193165,107.436
1335521253165,107.439
1335521313165,107.213
1335521373165,107.481
1335521433165,107.540
1335521493165,107.477
1335521553165,107.363
1335521613165,107.552
1335521673165,107.866
1335521733165,107.530
1335521793165,106.932
1335521853165,107.436
1335521913165,107.268
1335521973165,107.733
1335522033165,107.705
1335522093165,107.136
1335522153165,107.296
1335522213165,107.575
1335522273165,107.545
1335522333165,107.439
1335522393165,107.515
1335522453165,107.699
1335522513165,107.423
1335522573165,108.398
1335522633165,108.286
1335522693165,107.819
1335522753165,108.749
1335522813165,108.650
1335522873165,108.507
1335522933165,108.076
1335522993165,108.082
1335523053165,108.320
1335523113165,107.909
1335523173165,108.378
1335523233165,108.250
1335523293165,108.093
1335523353165,108.539
1335523413165,107.887
1335523473165,108.003
1335523533165,108.408
1335523593165,108.176
1335523653165,108.333
1335523713165,107.851
1335523773165,108.078
1335523833165,108.523
1335523893165,108.620
1335523953165,108.969
1335524013165,108.706
1335524073165,108.248
1335524133165,108.657
1335524193165,108.252
1335524253165,108.239
1335524313165,108.663
1335524373165,108.257
1335524433175,108.754
1335524493175,108.577
1335524553175,108.290
1335524613175,108.654
1335524673175,108.377
1335524733175,107.911
1335524793175,108.557
1335524853175,109.009
1335524913175,108.565
1335524973175,108.571
1335525033175,108.489
1335525093175,108.739
1335525153175,109.101
1335525213175,109.033
1335525273175,108.820
1335525333175,108.684
1335525393175,109.077
1335525453175,109.617
1335525513175,109.196
1335525573175,109.014
1335525633175,109.113
1335525693175,108.771
1335525753175,109.209
1335525813175,109.384
1335525873175,109.658
1335525933175,109.570
1335525993175,108.949
1335526053175,110.135
1335526113175,109.221
1335526173175,110.300
1335526233175,109.709
1335526293175,109.814
1335526353175,109.775
1335526413175,109.689
1335526473175,109.692
1335526533175,110.029
1335526593175,109.313
1335526653175,109.782
1335526713175,110.301
1335526773175,109.679
1335526833175,109.353
1335526893175,109.687
1335526953175,109.643
1335527013175,109.380
1335527073175,109.607
1335527133175,109.780
1335527193175,109.895
1335527253175,109.916
1335527313175,109.674
1335527373175,109.798
1335527433175,109.956
1335527493175,109.490
1335527553175,109.633
1335527613175,109.969
1335527673175,109.833
1335527733175,110.374
1335527793175,110.201
1335527853175,110.256
1335527913175,110.014
1335527973175,110.595
1335528033185,109.789
1335528093185,110.033
1335528153185,110.212
1335528213185,109.797
1335528273185,110.021
1335528333185,110.240
1335528393185,110.118
1335528453185,109.807
1335528513185,110.212
1335528573185,110.473
1335528633185,110.767
1335528693185,111.604
1335528753185,110.752
1335528813185,110.418
1335528873185,110.445
1335528933185,110.471
1335528993185,110.463
1335529053185,110.409
1335529113185,110.592
1335529173185,110.157
1335529233185,110.810
1335529293185,110.677
1335529353185,110.627
1335529413185,110.434
1335529473185,111.110
1335529533185,111.006
1335529593185,110.695
1335529653185,111.446
1335529713185,111.194
1335529773185,111.080
1335529833185,110.803
1335529893185,110.687
1335529953185,111.056
1335530013185,110.917
1335530073185,111.133
1335530133185,111.046
1335530193185,110.674
1335530253185,110.369
1335530313185,110.748
1335530373185,110.471
1335530433185,110.675
1335530493185,110.508
1335530553185,110.749
1335530613185,110.586
1335530673185,111.172
1335530733185,110.711
1335530793185,111.140
1335530853185,111.423
1335530913185,110.831
1335530973185,110.973
1335531033185,111.308
1335531093185,111.230
1335531153185,110.578
1335531213185,110.911
1335531273185,111.153
1335531333185,110.884
1335531393185,111.517
1335531453185,111.424
1335531513185,110.981
1335531573185,111.177
1335531633195,111.016
1335531693195,111.120
1335531753195,111.236
1335531813195,111.086
1335531873195,111.818
1335531933195,111.572
1335531993195,111.537
1335532053195,112.172
1335532113195,111.686
1335532173195,111.569
1335532233195,111.473
1335532293195,111.982
1335532353195,111.600
1335532413195,111.943
1335532473195,112.374
1335532533195,112.319
1335532593195,112.248
1335532653195,112.180
1335532713195,112.111
1335532773195,112.527
1335532833195,112.521
1335532893195,111.844
1335532953195,112.231
1335533013195,112.425
1335533073195,112.075
1335533133195,112.375
1335533193195,111.889
1335533253195,112.333
1335533313195,112.054
1335533373195,112.042
1335533433195,112.672
1335533493195,112.819
1335533553195,112.016
1335533613195,112.316
1335533673195,112.377
1335533733195,111.660
1335533793195,111.993
1335533853195,112.568
1335533913195,111.831
1335533973195,112.047
1335534033195,112.222
1335534093195,112.302
1335534153195,112.117
1335534213195,112.623
1335534273195,112.238
1335534333195,112.147
1335534393195,111.809
1335534453195,111.742
1335534513195,111.633
1335534573195,112.383
1335534633195,111.650
1335534693195,111.903
1335534753195,111.825
1335534813195,111.683
1335534873195,111.552
1335534933195,112.417
1335534993195,111.636
1335535053195,111.583
1335535113195,111.819
1335535173195,111.701
1335535233206,110.994
1335535293206,111.379
1335535353206,111.425
1335535413206,110.959
1335535473206,111.126
1335535533206,111.230
1335535593206,111.358
1335535653206,111.131
1335535713206,111.381
1335535773206,111.134
1335535833206,111.173
1335535893206,111.190
1335535953206,111.237
1335536013206,110.766
1335536073206,110.700
1335536133206,111.055
1335536193206,110.636
1335536253206,110.943
1335536313206,111.028
1335536373206,111.256
1335536433206,110.929
1335536493206,110.496
1335536553206,110.958
1335536613206,110.693
1335536673206,111.078
1335536733206,110.512
1335536793206,111.208
1335536853206,111.014
1335536913206,111.224
1335536973206,111.166
1335537033206,110.597
1335537093206,110.899
1335537153206,110.660
1335537213206,110.928
1335537273206,110.868
1335537333206,110.879
1335537393206,110.825
1335537453206,111.077
1335537513206,110.680
1335537573206,110.386
1335537633206,110.183
1335537693206,111.059
1335537753206,110.277
1335537813206,110.609
1335537873206,110.342
1335537933206,110.704
1335537993206,110.671
1335538053206,110.792
1335538113206,110.581
1335538173206,110.030
1335538233206,110.142
1335538293206,110.804
1335538353206,110.695
1335538413206,110.652
1335538473206,109.861
1335538533206,110.791
1335538593206,110.308
1335538653206,110.916
1335538713206,110.435
1335538773206,110.515
1335538833216,109.774
1335538893216,110.338
1335538953216,110.220
1335539013216,110.515
1335539073216,110.167
1335539133216,110.215
1335539193216,109.988
1335539253216,110.343
1335539313216,110.089
1335539373216,110.392
1335539433216,110.269
1335539493216,109.979
1335539553216,110.154
1335539613216,110.057
1335539673216,110.989
1335539733216,110.101
1335539793216,110.071
1335539853216,110.215
1335539913216,109.996
1335539973216,110.231
1335540033216,110.205
1335540093216,110.151
1335540153216,110.706
1335540213216,109.992
1335540273216,110.241
1335540333216,110.340
1335540393216,111.124
1335540453216,110.282
1335540513216,110.975
1335540573216,110.573
1335540633216,110.863
1335540693216,110.905
1335540753216,110.880
1335540813216,110.995
1335540873216,110.944
1335540933216,110.562
1335540993216,111.097
1335541053216,110.011
1335541113216,110.871
1335541173216,110.792
1335541233216,110.759
1335541293216,110.776
1335541353216,111.013
1335541413216,111.084
1335541473216,111.066
1335541533216,111.081
1335541593216,110.934
1335541653216,111.403
1335541713216,111.373
1335541773216,111.529
1335541833216,111.228
1335541893216,111.659
1335541953216,110.965
1335542013216,110.858
1335542073216,111.434
1335542133216,111.424
1335542193216,111.530
1335542253216,111.609
1335542313216,111.043
1335542373216,111.373
1335542433226,111.200
1335542493226,111.068
1335542553226,111.534
1335542613226,111.999
1335542673226,111.427
1335542733226,111.573
1335542793226,111.565
1335542853226,111.453
1335542913226,112.089
1335542973226,111.882
1335543033226,112.611
1335543093226,112.034
1335543153226,111.505
1335543213226,112.231
1335543273226,111.562
1335543333226,111.396
1335543393226,111.926
1335543453226,111.846
1335543513226,111.889
1335543573226,111.930
1335543633226,112.258
1335543693226,112.311
1335543753226,112.210
1335543813226,111.877
1335543873226,112.566
1335543933226,111.789
1335543993226,111.995
1335544053226,111.718
1335544113226,112.621
1335544173226,112.483
1335544233226,112.006
1335544293226,112.351
1335544353226,112.332
1335544413226,111.881
1335544473226,111.735
1335544533226,112.423
1335544593226,112.035
1335544653226,112.269
1335544713226,112.480
1335544773226,111.994
1335544833226,111.874
1335544893226,111.995
1335544953226,111.931
1335545013226,112.048
1335545073226,112.589
1335545133226,112.275
1335545193226,112.908
1335545253226,112.156
1335545313226,112.233
1335545373226,112.204
1335545433226,112.609
1335545493226,112.292
1335545553226,112.397
1335545613226,112.326
1335545673226,112.518
1335545733226,113.495
1335545793226,112.215
1335545853226,111.911
1335545913226,111.992
1335545973226,112.242
1335546033236,112.353
1335546093236,112.209
1335546153236,112.586
1335546213236,112.093
1335546273236,112.297
1335546333236,112.269
1335546393236,112.146
1335546453236,112.429
1335546513236,112.374
1335546573236,112.295
1335546633236,112.108
1335546693236,112.533
1335546753236,112.462
1335546813236,112.190
1335546873236,112.202
1335546933236,112.320
1335546993236,112.213
1335547053236,112.561
1335547113236,112.726
1335547173236,112.022
1335547233236,112.085
1335547293236,112.439
1335547353236,112.574
1335547413236,112.090
1335547473236,112.322
1335547533236,112.096
1335547593236,111.778
1335547653236,112.456
1335547713236,112.536
1335547773236,112.346
1335547833236,112.353
1335547893236,112.005
1335547953236,112.672
1335548013236,112.282
1335548073236,112.157
1335548133236,112.225
1335548193236,112.323
1335548253236,112.903
1335548313236,112.976
1335548373236,112.871
1335548433236,112.538
1335548493236,112.866
1335548553236,112.805
1335548613236,112.942
1335548673236,112.078
1335548733236,112.532
1335548793236,112.360
1335548853236,112.199
1335548913236,112.531
1335548973236,112.005
1335549033236,112.590
1335549093236,112.523
1335549153236,112.431
1335549213236,112.202
1335549273236,112.349
1335549333236,112.378
1335549393236,112.219
1335549453236,112.737
1335549513236,112.655
1335549573236,112.363
1335549633246,112.577
1335549693246,112.467
1335549753246,112.801
1335549813246,112.805
1335549873246,112.796
1335549933246,112.558
1335549993246,112.204
1335550053246,111.968
1335550113246,112.384
1335550173246,112.450